This is the latest recevied weather packets stored in our database for station/object DD3UTS-13. If no packets are shown the sender has not sent any weather packets the latest 10 day(s).
| Time | Temp. | Humidity | Pressure | Rain* | Wind** | Luminosity | Snow |
|---|---|---|---|---|---|---|---|
| 1777576532 | 10° C | 50% | 1027.6 hPa | 0 mm | - | 0 W/m² | - |
| 1777576231 | 10.56° C | 50% | 1027.6 hPa | 0 mm | - | 0 W/m² | - |
| 1777575932 | 10.56° C | 49% | 1027.6 hPa | 0 mm | - | 0 W/m² | - |
| 1777575632 | 10.56° C | 49% | 1027.6 hPa | 0 mm | - | 0 W/m² | - |
| 1777575332 | 11.11° C | 48% | 1027.7 hPa | 0 mm | - | 0 W/m² | - |
| 1777575031 | 11.11° C | 47% | 1027.6 hPa | 0 mm | - | 0 W/m² | - |
| 1777574732 | 11.67° C | 47% | 1027.6 hPa | 0 mm | - | 0 W/m² | - |
| 1777574432 | 11.67° C | 46% | 1027.6 hPa | 0 mm | - | 0 W/m² | - |
| 1777574132 | 12.22° C | 45% | 1027.6 hPa | 0 mm | - | 0 W/m² | - |
| 1777573831 | 12.78° C | 44% | 1027.5 hPa | 0 mm | - | 0 W/m² | - |
| 1777573532 | 13.33° C | 43% | 1027.5 hPa | 0 mm | - | 3 W/m² | - |
| 1777573232 | 13.89° C | 41% | 1027.5 hPa | 0 mm | - | 8 W/m² | - |
| 1777572932 | 15° C | 40% | 1027.5 hPa | 0 mm | - | 15 W/m² | - |
| 1777572632 | 15.56° C | 39% | 1027.5 hPa | 0 mm | - | 49 W/m² | - |
| 1777572332 | 15.56° C | 39% | 1027.6 hPa | 0 mm | - | 100 W/m² | - |
| 1777572032 | 16.11° C | 38% | 1027.6 hPa | 0 mm | - | 129 W/m² | - |
| 1777571732 | 16.11° C | 38% | 1027.5 hPa | 0 mm | - | 185 W/m² | - |
| 1777571432 | 16.11° C | 38% | 1027.5 hPa | 0 mm | - | 228 W/m² | - |
| 1777571132 | 16.11° C | 39% | 1027.5 hPa | 0 mm | - | 260 W/m² | - |
| 1777570832 | 16.11° C | 39% | 1027.6 hPa | 0 mm | - | 292 W/m² | - |
| 1777570532 | 16.11° C | 39% | 1027.6 hPa | 0 mm | - | 315 W/m² | - |
| 1777570232 | 16.11° C | 39% | 1027.6 hPa | 0 mm | - | 355 W/m² | - |
| 1777569932 | 16.11° C | 39% | 1027.6 hPa | 0 mm | - | 360 W/m² | - |
| 1777569632 | 16.11° C | 38% | 1027.6 hPa | 0 mm | - | 375 W/m² | - |
| 1777569332 | 16.11° C | 38% | 1027.7 hPa | 0 mm | - | 352 W/m² | - |
* Rain latest 24 hours (hover to see other rain measurements)
** Current wind speed in m/s (hover to see current wind gust speed)